^^
Station Historical Data
Daily Summary for December 7, 2017 Units:  Metric    English   Both
« Previous Day
Next Day »
Daily Weekly Monthly Yearly Custom
  High: Low: Average:
Temperature: 38.2 °C 23.3 °C 28.3 °C
Dew Point: 10.9 °C 4.9 °C 8.2 °C
Humidity: 38% 14% 30%
Wind Speed: 25.9km/h 0km/h 5km/h
Wind Gust: 33.8km/h - -
Wind- - SE
Pressure: 1008.4 hPa 1004.6 hPa -
Precipitation: 0 mm    
Historical Graphs
 
 
Tabular Data for December 7, 2017
Time Temperature Dew Point Pressure Wind Wind Speed Wind Gust Humidity Rainfall Rate (Hourly) solar Conditions
00:03 28.2 °C 9.5 °C 1006.7 hPa SW 7.9 km/h 9.7 km/h 31% 0 mm 0.0 W/m2
00:25 27.8 °C 9.1 °C 1006.7 hPa SW 4.7 km/h 8 km/h 31% 0 mm 0.0 W/m2
00:32 27.6 °C 9.4 °C 1006.7 hPa SW 6.4 km/h 8 km/h 32% 0 mm 0.0 W/m2
00:41 27.3 °C 9.2 °C 1006.7 hPa Calm     32% 0 mm 0.0 W/m2
00:47 27.2 °C 9.1 °C 1006.7 hPa Calm     32% 0 mm 0.0 W/m2
00:52 27.1 °C 9 °C 1006.7 hPa Calm     32% 0 mm 0.0 W/m2
00:57 26.9 °C 8.8 °C 1006.3 hPa Calm     32% 0 mm 0.0 W/m2
01:02 26.7 °C 9.1 °C 1006.3 hPa Calm     33% 0 mm 0.0 W/m2
01:07 26.6 °C 9 °C 1006.3 hPa Calm     33% 0 mm 0.0 W/m2
01:13 26.6 °C 9 °C 1006 hPa Calm     33% 0 mm 0.0 W/m2
01:18 26.4 °C 8.8 °C 1006 hPa Calm     33% 0 mm 0.0 W/m2
01:23 26.4 °C 8.8 °C 1006 hPa Calm     33% 0 mm 0.0 W/m2
01:28 26.3 °C 8.7 °C 1006 hPa Calm     33% 0 mm 0.0 W/m2
01:33 26 °C 8.9 °C 1006 hPa Calm     34% 0 mm 0.0 W/m2
01:39 25.8 °C 8.7 °C 1006.3 hPa Calm     34% 0 mm 0.0 W/m2
01:45 25.8 °C 8.7 °C 1006 hPa Calm     34% 0 mm 0.0 W/m2
01:50 25.8 °C 8.7 °C 1006 hPa Calm     34% 0 mm 0.0 W/m2
01:55 25.8 °C 8.7 °C 1006 hPa Calm     34% 0 mm 0.0 W/m2
02:00 25.8 °C 8.7 °C 1006 hPa Calm     34% 0 mm 0.0 W/m2
02:05 25.8 °C 8.7 °C 1006 hPa Calm     34% 0 mm 0.0 W/m2
02:10 25.7 °C 8.7 °C 1005.6 hPa Calm     34% 0 mm 0.0 W/m2
02:16 25.6 °C 8.6 °C 1005.6 hPa Calm     34% 0 mm 0.0 W/m2
02:21 25.5 °C 8.9 °C 1005.6 hPa Calm     35% 0 mm 0.0 W/m2
02:26 25.4 °C 8.8 °C 1005.6 hPa Calm     35% 0 mm 0.0 W/m2
02:31 25.3 °C 8.7 °C 1005.6 hPa Calm     35% 0 mm 0.0 W/m2
02:37 25.2 °C 8.6 °C 1005.6 hPa Calm     35% 0 mm 0.0 W/m2
02:48 25.1 °C 9 °C 1005.6 hPa Calm     36% 0 mm 0.0 W/m2
02:53 25 °C 8.9 °C 1005.6 hPa Calm     36% 0 mm 0.0 W/m2
02:59 25 °C 8.9 °C 1005.6 hPa Calm     36% 0 mm 0.0 W/m2
03:04 24.9 °C 8.8 °C 1005.6 hPa Calm     36% 0 mm 0.0 W/m2
03:09 24.8 °C 8.3 °C 1005.6 hPa Calm     35% 0 mm 0.0 W/m2
03:14 24.6 °C 8.5 °C 1005.6 hPa Calm     36% 0 mm 0.0 W/m2
03:19 24.6 °C 8.5 °C 1005.6 hPa Calm     36% 0 mm 0.0 W/m2
03:24 24.5 °C 8.4 °C 1006 hPa Calm     36% 0 mm 0.0 W/m2
03:30 24.4 °C 8.8 °C 1006 hPa Calm     37% 0 mm 0.0 W/m2
03:35 24.4 °C 8.4 °C 1005.6 hPa Calm     36% 0 mm 0.0 W/m2
03:41 24.2 °C 7.8 °C 1006 hPa Calm     35% 0 mm 0.0 W/m2
03:46 24.1 °C 8.1 °C 1006 hPa Calm     36% 0 mm 0.0 W/m2
03:51 23.9 °C 7.9 °C 1006 hPa Calm     36% 0 mm 0.0 W/m2
03:56 23.8 °C 7.8 °C 1006 hPa Calm     36% 0 mm 0.0 W/m2
04:01 23.7 °C 8.1 °C 1006 hPa Calm     37% 0 mm 0.0 W/m2
04:06 23.7 °C 8.1 °C 1006 hPa Calm     37% 0 mm 0.0 W/m2
04:12 23.8 °C 8.2 °C 1006 hPa Calm     37% 0 mm 0.0 W/m2
04:17 23.8 °C 7.8 °C 1006 hPa Calm     36% 0 mm 0.0 W/m2
04:22 23.6 °C 7.7 °C 1006.3 hPa Calm     36% 0 mm 0.0 W/m2
04:33 23.3 °C 8.2 °C 1006.3 hPa Calm     38% 0 mm 0.0 W/m2
04:38 23.4 °C 8.3 °C 1006.3 hPa Calm     38% 0 mm 0.0 W/m2
04:44 23.5 °C 8 °C 1006.3 hPa Calm     37% 0 mm 0.0 W/m2
04:49 23.6 °C 8.1 °C 1006.3 hPa Calm     37% 0 mm 0.0 W/m2
04:54 23.6 °C 7.7 °C 1006.3 hPa Calm     36% 0 mm 0.0 W/m2
04:59 23.6 °C 7.2 °C 1006.3 hPa Calm     35% 0 mm 0.0 W/m2
05:09 23.8 °C 7.4 °C 1006.3 hPa Calm     35% 0 mm 0.0 W/m2
05:19 24.1 °C 7.7 °C 1006.7 hPa Calm     35% 0 mm 0.0 W/m2
05:35 24.4 °C 7.1 °C 1007 hPa Calm     33% 0 mm 0.0 W/m2
05:46 25.4 °C 7.5 °C 1007 hPa Calm     32% 0 mm 0.0 W/m2
05:51 25.9 °C 7.5 °C 1007 hPa Calm     31% 0 mm 5.0 W/m2
05:56 26.1 °C 7.6 °C 1007 hPa Calm     31% 0 mm 7.0 W/m2
06:01 26.2 °C 7.7 °C 1007 hPa Calm     31% 0 mm 9.0 W/m2
06:07 26.3 °C 7.8 °C 1007.3 hPa Calm     31% 0 mm 12.0 W/m2
06:48 26.7 °C 8.2 °C 1007.7 hPa Calm     31% 0 mm 125.0 W/m2
06:53 26.9 °C 8.3 °C 1007.7 hPa Calm     31% 0 mm 142.0 W/m2
07:03 28 °C 10.2 °C 1007.7 hPa NE 19.5 km/h 19.5 km/h 33% 0 mm 185.0 W/m2
07:08 28.7 °C 10.8 °C 1007.7 hPa NE 14.3 km/h 20.9 km/h 33% 0 mm 204.0 W/m2
07:13 29.1 °C 10.7 °C 1007.7 hPa NNE 22.7 km/h 29 km/h 32% 0 mm 220.0 W/m2
07:18 29.3 °C 10.9 °C 1007.7 hPa NNE 19.5 km/h 24.1 km/h 32% 0 mm 237.0 W/m2
07:24 29.5 °C 10.6 °C 1007.7 hPa NNE 13 km/h 19.3 km/h 31% 0 mm 253.0 W/m2
07:35 29.9 °C 10.4 °C 1008 hPa NNE 7.9 km/h 19.3 km/h 30% 0 mm 281.0 W/m2
07:42 30 °C 10 °C 1008 hPa NNE 17.7 km/h 25.7 km/h 29% 0 mm 302.0 W/m2
08:03 30.8 °C 9.6 °C 1008 hPa NNE 16.3 km/h 22.5 km/h 27% 0 mm 385.0 W/m2
08:07 30.8 °C 9.6 °C 1008 hPa NNE 16.3 km/h 22.5 km/h 27% 0 mm 385.0 W/m2
08:18 31 °C 9.2 °C 1008 hPa NE 14.3 km/h 29 km/h 26% 0 mm 418.0 W/m2
08:32 30.9 °C 9.7 °C 1008 hPa NE 19.5 km/h 24.1 km/h 27% 0 mm 468.0 W/m2
08:43 31.2 °C 10 °C 1008.4 hPa NNE 19.5 km/h 22.5 km/h 27% 0 mm 499.0 W/m2
08:51 31.4 °C 10.2 °C 1008 hPa NNE 20.9 km/h 29 km/h 27% 0 mm 531.0 W/m2
09:05 32 °C 10.1 °C 1008 hPa NE 24.1 km/h 24.1 km/h 26% 0 mm 575.0 W/m2
09:12 32.1 °C 10.2 °C 1008 hPa NNE 25.9 km/h 32.2 km/h 26% 0 mm 592.0 W/m2
09:54 32.9 °C 9 °C 1007.7 hPa NNE 24.1 km/h 32.2 km/h 23% 0 mm 707.0 W/m2
10:09 33.5 °C 8.9 °C 1007.7 hPa NE 16.3 km/h 24.1 km/h 22% 0 mm 745.0 W/m2
10:24 33.7 °C 8.3 °C 1007.7 hPa North 11.1 km/h 32.2 km/h 21% 0 mm 780.0 W/m2
10:40 33.9 °C 7.8 °C 1007.3 hPa NNE 19.5 km/h 29 km/h 20% 0 mm 817.0 W/m2
11:10 34.8 °C 7 °C 1007.3 hPa NNE 7.9 km/h 29 km/h 18% 0 mm 875.0 W/m2
11:25 35.1 °C 5.5 °C 1007.3 hPa NNW 7.9 km/h 22.5 km/h 16% 0 mm 902.0 W/m2
11:41 35.7 °C 6.9 °C 1007 hPa North 7.9 km/h 25.7 km/h 17% 0 mm 918.0 W/m2
11:56 36 °C 5.3 °C 1007 hPa NW 19.5 km/h 24.1 km/h 15% 0 mm 935.0 W/m2
12:11 36.1 °C 5.4 °C 1006.7 hPa Calm   27.4 km/h 15% 0 mm 946.0 W/m2
12:24 36.4 °C 5.6 °C 1006.7 hPa North 14.3 km/h 33.8 km/h 15% 0 mm 954.0 W/m2
12:40 36.7 °C 4.9 °C 1006.3 hPa North 7.9 km/h 8 km/h 14% 0 mm 960.0 W/m2
12:54 37.1 °C 5.2 °C 1006.3 hPa North 7.9 km/h 24.1 km/h 14% 0 mm 976.0 W/m2
13:16 36.7 °C 4.9 °C 1006 hPa ENE 9.7 km/h 17.7 km/h 14% 0 mm 132.0 W/m2
13:31 37.5 °C 5.5 °C 1005.6 hPa ENE 4.7 km/h 8 km/h 14% 0 mm 983.0 W/m2
13:43 37.7 °C 5.6 °C 1005.6 hPa NNW 13 km/h 24.1 km/h 14% 0 mm 981.0 W/m2
13:55 37.3 °C 6.3 °C 1005.6 hPa North 1.4 km/h 14.5 km/h 15% 0 mm 1042.0 W/m2
14:06 37.1 °C 6.2 °C 1005.3 hPa NNW 7.9 km/h 17.7 km/h 15% 0 mm 990.0 W/m2
14:20 38.2 °C 6 °C 1005 hPa North 6.4 km/h 22.5 km/h 14% 0 mm 949.0 W/m2
14:29 38.1 °C 6 °C 1005 hPa East 6.4 km/h 8 km/h 14% 0 mm 970.0 W/m2
14:37 37.8 °C 5.7 °C 1004.6 hPa NE 1.4 km/h 6.4 km/h 14% 0 mm 181.0 W/m2
Canyon Roadhouse, Fishriver Canyon, Namibia
Compliments of Weather Underground - 2 mb